Location: Marshall
(39.8477°N, 87.1868°W)
Time: 05:42:21
(UTC+00:00)

HTV-X1 - Pass Details

Date: 26 May 2026
Orbit: 368 x 378 km, 51.6° (Epoch: 26 May)

Event Time Altitude Azimuth Distance (km) Brightness Sun altitude
Rises 03:03:49 0° 297° (WNW) 2,216 ? -18.3°
Reaches altitude 10° 03:06:05 10° 282° (WNW) 1,364 ? -18.6°
Enters shadow 03:08:29 24° 231° (SW) 819 ? -18.9°
